Home > Weather > Shiprock > Past weeks

Flag for USA Past Weather in Shiprock, New Mexico, USA — Yesterday and Last 2 Weeks

Now
63 °F

Passing clouds.


Feels Like: 63 °F
Forecast: 58 / 84 °F
Wind: 15 mph from East

Location: Four Corners Regional Airport

Current Time: Aug 30, 2016 at 1:33:25 AM

Latest Report: Aug 30, 2016 at 12:53 AM


Visibility: 10 mi

Pressure: 30.12 "Hg (25.27 "Hg at 1492m altitude)

Humidity: 52%

Dew Point: 45 °F

Location of ShiprockLocation

Past Weather in Shiprock — Graph

°F

Shiprock Temperature Yesterday

Maximum temperature yesterday: 82 °F (at 3:53 PM)
Minimum temperature yesterday: 50 °F (at 5:53 AM)
Average temperature yesterday: 65 °F

High & Low Weather Summary for the Past Weeks

 TemperatureHumidityPressure
High91 °F (Aug 15, 2:53 PM)93% (Aug 24, 4:53 AM)30.21 "Hg (Aug 24, 4:53 AM)
Low49 °F (Aug 28, 6:53 AM)8% (Aug 15, 2:53 PM)29.81 "Hg (Aug 20, 5:53 PM)
Average68 °F47%30.02 "Hg
* Reported Aug 14 11:53 PM — Aug 29 11:53 PM, Shiprock, Weather by CustomWeather, © 2016

Note: Actual official high and low records may vary slightly from our data, if they occured in-between our weather recording intervals... More about our weather records

Advertising

Shiprock Weather History for the Previous 24 Hours

Scroll right to see more
 ConditionsComfort  
Time TempWeatherWind HumidityBarometerVisibility
11:53 PM
Mon, Aug 29
62 °FClear.8 mph54%30.12 "Hg10 mi
10:53 PM64 °FClear.6 mph49%30.13 "Hg10 mi
9:53 PM66 °FClear.5 mph47%30.12 "Hg10 mi
8:53 PM68 °FClear.7 mph42%30.11 "Hg10 mi
7:53 PM71 °FSunny.10 mph36%30.10 "Hg10 mi
6:53 PM74 °FSunny.16 mph32%30.10 "Hg10 mi
5:53 PM79 °FSunny.10 mph22%30.07 "Hg10 mi
4:53 PM81 °FSunny.18 mph23%30.06 "Hg10 mi
3:53 PM82 °FSunny.8 mph22%30.06 "Hg10 mi
2:53 PM80 °FSunny.13 mph23%30.08 "Hg10 mi
1:53 PM78 °FPassing clouds.3 mph25%30.11 "Hg10 mi
12:53 PM77 °FSunny.3 mph28%30.13 "Hg10 mi
11:53 AM74 °FSunny.5 mph33%30.14 "Hg10 mi
10:53 AM70 °FSunny.5 mph41%30.17 "Hg10 mi
9:53 AM64 °FSunny.5 mph52%30.18 "Hg10 mi
8:53 AM59 °FSunny.5 mph60%30.20 "Hg10 mi
7:53 AM52 °FSunny.7 mph80%30.21 "Hg10 mi
6:53 AM50 °FClear.7 mph83%30.19 "Hg10 mi
5:53 AM50 °FPassing clouds.5 mph83%30.18 "Hg10 mi
4:53 AM51 °FPassing clouds.7 mph83%30.16 "Hg10 mi
3:53 AM52 °FPassing clouds.7 mph77%30.14 "Hg10 mi
2:53 AM52 °FClear.6 mph83%30.13 "Hg10 mi
1:53 AM52 °FClear.5 mph80%30.12 "Hg10 mi
Weather by CustomWeather, © 2016

See weather overviewHow to use our weather pages